COSMOS 252 DEB *, 4421

Orbit data source: Space-Track

COSMOS 252 DEB *, 4421 is space debris in LEO originally from a launch on Fri, 01 Nov 1968 UTC launched from the Tyuratam Missile And Space Complex (TTMTR). Debris objects in space refer to the collection of defunct objects orbiting the Earth. Examples of debris include non-operational satellites, rocket bodies, and fragments generated from explosions, collisions, or faulty payload assembly.

Loading next visibility...
Identifier
4421, 1968-097CF
Orbit
LEO
Country
Flag of CISCIS
Related business
Manufacturer
Unknown
Mission
Spacecraft
Bus & Motor
Unknown
Mass
Unknown
Launch date (UTC)
1968-11-01 (57 years ago)
Launch vehicle
Unknown
Launch site
Tyuratam Missile And Space Complex (TTMTR)
Object type
Payload
Rocket body
Debris
Shape & HBR
Unknown shape, 0.1 m
Radar Cross Section
Small (<0.1 m²)

Expand to show TLE details & history
Last TLE update: 13 hours ago

TLE from 13 hours ago
0 COSMOS 252 DEB *
1  4421U 68097CF  26121.95374927  .00006110  00000-0  98850-3 0  9990
2  4421  62.7348 333.1089 0622935 167.8054 193.8897 13.90205930553019
Epoch: 2026-05-01T22:53Z
TLE epoch observation values (Epoch: 2026-05-01T22:53:23.936Z)
Latitude
-0°
Longitude
129.88056°
Altitude
1,373.012 km
Speed
6.952 km/s
True Right ascension
22h 12m 26s
True Declination
0° 00' 00"
Sunlit
Object was in daylight at epoch
Visualization orbit readout
Latitude
Unknown
Longitude
Unknown
Altitude
Unknown
Speed
Unknown
Apparent Right ascension
Unknown
Apparent Declination
Unknown
Sunlit
N/A
Visualization observer readout
Local Sidereal Time
19:15:07
Azimuth
Unknown
Elevation
Unknown
Doppler factor
Unknown
Orbital elements
Apogee altitude
1,381.84 km
Perigee altitude
471.741 km
Semi-major axis
7,304.928 km
Eccentricity
0.06229
Inclination
62.7348°
RAAN
333.1089°
Arg. of periapsis
167.8054°
True anomaly
192.29706°
Mean anomaly
193.8897°
Eccentric anomaly
193.08185°
Mean motion
3.47632 °/min
Orbital period
103.56 mins
BSTAR
0.0009885
Loading maneuver chart data...
Computing Atmospheric mass density...
Loading historical data...
Loading historical data...
Loading historical data...
Loading historical data...
Loading historical data...
Loading historical data...
Loading historical data...

Documentation

Showing up to 5 results
|